• In Belarus
  • List of Countries
  • For 7 days
  • Water Temperature
  • Satellite Maps
  • Weather Map
  • Weather Widgets
  • user-avatar
    Login

    Hourly Weather Rogatin

    Today, 23 October, Monday

    Time Temperature Precipitation Wind Pressure Humidity
    00:00 +6°C° 0 mm 5 mps 736 mmHg 86%
    01:00 +6°C° 0 mm 5 mps 736 mmHg 86%
    02:00 +6°C° 0 mm 4 mps 736 mmHg 85%
    03:00 +5°C° 0.1 mm 4 mps 735 mmHg 85%
    04:00 +5°C° 0.1 mm 4 mps 735 mmHg 86%
    05:00 +5°C° 0.1 mm 4 mps 735 mmHg 86%
    06:00 +6°C° 0.2 mm 4 mps 735 mmHg 86%
    07:00 +6°C° 0.2 mm 5 mps 734 mmHg 86%
    08:00 +6°C° 0.2 mm 5 mps 734 mmHg 86%
    09:00 +6°C° 0.2 mm 5 mps 734 mmHg 84%
    10:00 +6°C° 0.2 mm 5 mps 734 mmHg 83%
    11:00 +7°C° 0.2 mm 5 mps 734 mmHg 82%
    12:00 +7°C° 0.4 mm 5 mps 734 mmHg 83%
    13:00 +7°C° 0.4 mm 5 mps 734 mmHg 83%
    14:00 +7°C° 0.4 mm 5 mps 734 mmHg 84%
    15:00 +7°C° 0.5 mm 5 mps 734 mmHg 85%
    16:00 +7°C° 0.5 mm 5 mps 734 mmHg 87%
    17:00 +7°C° 0.5 mm 4 mps 734 mmHg 89%
    18:00 +7°C° 0.6 mm 5 mps 735 mmHg 89%
    19:00 +7°C° 0.6 mm 5 mps 735 mmHg 90%
    20:00 +6°C° 0.6 mm 5 mps 735 mmHg 90%
    21:00 +6°C° 0.6 mm 5 mps 736 mmHg 90%
    22:00 +6°C° 0.6 mm 5 mps 736 mmHg 89%
    23:00 +6°C° 0.6 mm 5 mps 736 mmHg 89%

    Tomorrow, 24 October, Tuesday

    Time Temperature Precipitation Wind Pressure Humidity
    00:00 +5°C° 0.3 mm 5 mps 737 mmHg 89%
    01:00 +5°C° 0.3 mm 4 mps 737 mmHg 88%
    02:00 +5°C° 0.3 mm 4 mps 738 mmHg 88%
    03:00 +5°C° 0.2 mm 4 mps 738 mmHg 88%
    04:00 +4°C° 0.2 mm 4 mps 739 mmHg 88%
    05:00 +4°C° 0.2 mm 4 mps 739 mmHg 88%
    06:00 +4°C° 0.3 mm 4 mps 740 mmHg 88%
    07:00 +3°C° 0.3 mm 5 mps 740 mmHg 87%
    08:00 +3°C° 0.3 mm 5 mps 741 mmHg 87%
    09:00 +3°C° 0.1 mm 5 mps 741 mmHg 85%
    10:00 +4°C° 0.1 mm 4 mps 742 mmHg 82%
    11:00 +5°C° 0.1 mm 4 mps 743 mmHg 80%
    12:00 +5°C° 0 mm 4 mps 743 mmHg 77%
    13:00 +6°C° 0 mm 4 mps 743 mmHg 73%
    14:00 +8°C° 0 mm 3 mps 744 mmHg 70%
    15:00 +7°C° 0 mm 3 mps 744 mmHg 72%
    16:00 +7°C° 0 mm 3 mps 744 mmHg 74%
    17:00 +6°C° 0 mm 2 mps 744 mmHg 77%
    18:00 +5°C° 0 mm 2 mps 745 mmHg 78%
    19:00 +4°C° 0 mm 2 mps 745 mmHg 80%
    20:00 +4°C° 0 mm 2 mps 746 mmHg 82%
    21:00 +3°C° 0 mm 2 mps 746 mmHg 83%
    22:00 +3°C° 0 mm 2 mps 746 mmHg 83%
    23:00 +2°C° 0 mm 2 mps 747 mmHg 83%

    Day after tomorrow, 25 October, Wednesday

    Time Temperature Precipitation Wind Pressure Humidity
    00:00 +2°C° 0 mm 2 mps 747 mmHg 83%
    01:00 +2°C° 0 mm 2 mps 747 mmHg 83%
    02:00 +2°C° 0 mm 2 mps 747 mmHg 82%
    03:00 +1°C° 0 mm 2 mps 747 mmHg 82%
    04:00 +1°C° 0 mm 2 mps 747 mmHg 83%
    05:00 +1°C° 0 mm 2 mps 747 mmHg 83%
    06:00 +1°C° 0 mm 2 mps 747 mmHg 81%
    07:00 +1°C° 0 mm 2 mps 748 mmHg 80%
    08:00 +1°C° 0 mm 2 mps 748 mmHg 79%
    09:00 +2°C° 0 mm 3 mps 748 mmHg 72%
    10:00 +3°C° 0 mm 3 mps 748 mmHg 65%
    11:00 +5°C° 0 mm 4 mps 748 mmHg 59%
    12:00 +6°C° 0 mm 4 mps 747 mmHg 56%
    13:00 +7°C° 0 mm 4 mps 747 mmHg 54%
    14:00 +8°C° 0 mm 4 mps 747 mmHg 52%
    15:00 +7°C° 0 mm 4 mps 746 mmHg 55%
    16:00 +7°C° 0 mm 3 mps 746 mmHg 58%
    17:00 +5°C° 0 mm 3 mps 746 mmHg 62%
    18:00 +5°C° 0 mm 3 mps 746 mmHg 62%
    19:00 +5°C° 0 mm 3 mps 746 mmHg 62%
    20:00 +5°C° 0 mm 4 mps 746 mmHg 61%
    21:00 +5°C° 0 mm 3 mps 746 mmHg 62%
    22:00 +5°C° 0 mm 3 mps 746 mmHg 63%
    23:00 +5°C° 0 mm 3 mps 745 mmHg 64%

    26 October, Thursday

    Time Temperature Precipitation Wind Pressure Humidity
    00:00 +5°C° 0 mm 3 mps 745 mmHg 65%
    01:00 +7°C° 0 mm 3 mps 745 mmHg 65%
    02:00 +7°C° 0 mm 3 mps 745 mmHg 66%
    03:00 +8°C° 0 mm 3 mps 745 mmHg 66%
    04:00 +8°C° 0 mm 3 mps 745 mmHg 67%
    05:00 +7°C° 0 mm 4 mps 744 mmHg 68%
    06:00 +8°C° 0.2 mm 4 mps 744 mmHg 70%
    07:00 +8°C° 0.2 mm 4 mps 745 mmHg 73%
    08:00 +8°C° 0.2 mm 4 mps 745 mmHg 76%
    09:00 +9°C° 0.1 mm 5 mps 745 mmHg 75%
    10:00 +10°C° 0.1 mm 5 mps 745 mmHg 74%
    11:00 +12°C° 0.1 mm 5 mps 745 mmHg 73%
    12:00 +12°C° 0 mm 5 mps 744 mmHg 72%
    13:00 +13°C° 0 mm 5 mps 744 mmHg 71%
    14:00 +13°C° 0 mm 5 mps 744 mmHg 70%
    15:00 +13°C° 0 mm 4 mps 743 mmHg 71%
    16:00 +12°C° 0 mm 4 mps 743 mmHg 73%
    17:00 +12°C° 0 mm 3 mps 743 mmHg 75%
    18:00 +11°C° 0 mm 4 mps 743 mmHg 75%
    19:00 +11°C° 0 mm 4 mps 742 mmHg 76%
    20:00 +11°C° 0 mm 4 mps 742 mmHg 76%
    21:00 +11°C° 0.4 mm 4 mps 741 mmHg 77%
    22:00 +11°C° 0.4 mm 4 mps 741 mmHg 78%
    23:00 +10°C° 0.4 mm 5 mps 741 mmHg 79%

    27 October, Friday

    Time Temperature Precipitation Wind Pressure Humidity
    00:00 +10°C° 0.3 mm 5 mps 740 mmHg 78%
    01:00 +11°C° 0.3 mm 6 mps 740 mmHg 77%
    02:00 +11°C° 0.3 mm 6 mps 739 mmHg 76%
    03:00 +11°C° 0.2 mm 6 mps 739 mmHg 77%
    04:00 +11°C° 0.2 mm 6 mps 738 mmHg 78%
    05:00 +10°C° 0.2 mm 6 mps 738 mmHg 79%
    06:00 +10°C° 0.3 mm 6 mps 737 mmHg 80%
    07:00 +10°C° 0.3 mm 5 mps 737 mmHg 81%
    08:00 +10°C° 0.3 mm 5 mps 737 mmHg 82%
    09:00 +12°C° 0.3 mm 5 mps 736 mmHg 80%
    10:00 +13°C° 0.3 mm 5 mps 736 mmHg 77%
    11:00 +13°C° 0.3 mm 5 mps 735 mmHg 75%
    12:00 +13°C° 1.5 mm 5 mps 735 mmHg 77%
    13:00 +12°C° 1.5 mm 4 mps 734 mmHg 80%
    14:00 +12°C° 1.5 mm 4 mps 734 mmHg 82%
    15:00 +11°C° 1 mm 4 mps 734 mmHg 84%
    16:00 +11°C° 1 mm 4 mps 733 mmHg 87%
    17:00 +10°C° 1 mm 4 mps 733 mmHg 89%
    18:00 +10°C° 0.8 mm 4 mps 733 mmHg 88%
    19:00 +9°C° 0.8 mm 5 mps 733 mmHg 88%
    20:00 +8°C° 0.8 mm 5 mps 733 mmHg 87%
    21:00 +8°C° 0.4 mm 5 mps 733 mmHg 87%
    22:00 +7°C° 0.4 mm 5 mps 733 mmHg 88%
    23:00 +7°C° 0.4 mm 5 mps 733 mmHg 88%

    28 October, Saturday

    Time Temperature Precipitation Wind Pressure Humidity
    00:00 +7°C° 0.1 mm 5 mps 733 mmHg 89%
    01:00 +7°C° 0.1 mm 5 mps 733 mmHg 89%
    02:00 +6°C° 0.1 mm 5 mps 733 mmHg 90%
    03:00 +6°C° 0.1 mm 5 mps 733 mmHg 89%
    04:00 +6°C° 0.1 mm 5 mps 733 mmHg 89%
    05:00 +6°C° 0.1 mm 5 mps 733 mmHg 88%
    06:00 +7°C° 0.1 mm 5 mps 733 mmHg 88%
    07:00 +7°C° 0.1 mm 5 mps 733 mmHg 88%
    08:00 +7°C° 0.1 mm 5 mps 733 mmHg 87%
    09:00 +7°C° 0.4 mm 5 mps 733 mmHg 85%
    10:00 +7°C° 0.4 mm 6 mps 733 mmHg 82%
    11:00 +8°C° 0.4 mm 6 mps 733 mmHg 79%
    12:00 +8°C° 0.1 mm 6 mps 732 mmHg 75%
    13:00 +8°C° 0.1 mm 6 mps 732 mmHg 70%
    14:00 +8°C° 0.1 mm 6 mps 731 mmHg 65%
    15:00 +8°C° 0 mm 5 mps 730 mmHg 69%
    16:00 +7°C° 0 mm 4 mps 730 mmHg 72%
    17:00 +7°C° 0 mm 3 mps 729 mmHg 76%
    18:00 +6°C° 0.1 mm 4 mps 728 mmHg 77%
    19:00 +6°C° 0.1 mm 4 mps 728 mmHg 79%
    20:00 +6°C° 0.1 mm 4 mps 727 mmHg 80%
    21:00 +6°C° 0.4 mm 5 mps 726 mmHg 80%
    22:00 +6°C° 0.4 mm 5 mps 725 mmHg 80%
    23:00 +5°C° 0.4 mm 6 mps 724 mmHg 81%

    29 October, Sunday

    Time Temperature Precipitation Wind Pressure Humidity
    00:00 +5°C° 0.7 mm 6 mps 724 mmHg 81%
    01:00 +5°C° 0.7 mm 6 mps 723 mmHg 82%
    02:00 +5°C° 0.7 mm 6 mps 723 mmHg 83%
    03:00 +5°C° 0.1 mm 7 mps 723 mmHg 83%
    04:00 +4°C° 0.1 mm 7 mps 723 mmHg 83%
    05:00 +4°C° 0.1 mm 7 mps 723 mmHg 83%
    06:00 +4°C° 0.4 mm 8 mps 723 mmHg 83%
    07:00 +4°C° 0.4 mm 8 mps 723 mmHg 82%
    08:00 +3°C° 0.4 mm 9 mps 723 mmHg 81%
    09:00 +3°C° 1 mm 10 mps 724 mmHg 81%
    10:00 +3°C° 1 mm 10 mps 724 mmHg 81%
    11:00 +3°C° 1 mm 10 mps 725 mmHg 81%
    12:00 +3°C° 1.3 mm 11 mps 725 mmHg 81%
    13:00 +3°C° 1.3 mm 11 mps 725 mmHg 81%
    14:00 +3°C° 1.3 mm 11 mps 726 mmHg 81%
    15:00 +3°C° 0.8 mm 10 mps 727 mmHg 82%
    16:00 +3°C° 0.8 mm 10 mps 727 mmHg 82%
    17:00 +3°C° 0.8 mm 10 mps 728 mmHg 82%
    18:00 +3°C° 0.5 mm 10 mps 729 mmHg 82%
    19:00 +3°C° 0.5 mm 10 mps 730 mmHg 82%
    20:00 +2°C° 0.5 mm 10 mps 731 mmHg 81%
    21:00 +2°C° 0.3 mm 9 mps 731 mmHg 81%
    22:00 +2°C° 0.3 mm 9 mps 732 mmHg 81%
    23:00 +1°C° 0.3 mm 9 mps 732 mmHg 80%
    Show more